Starlink 32384

operational
NORAD ID: 62146 Int'l Des: 2024-224 Owner: SPXS Country: US Constellation: starlink
LEOCIRCULAR

关于 Starlink 32384

正在加载描述...

实时位置

正在加载3D地球...

即将过境

高度历史

Altitude vs Time

uPlot chart will show altitude changes over time

两行轨道根数

1 62146U 24224H 25306.28382537 .00027879 00000-0 10183-2 0 9995
2 62146 42.9986 157.7372 0001580 269.7734 90.2937 15.27594506 52992
Epoch: Nov 2, 2025 • Age: 41 hours

当前状态

高度 482.7 km
速度 7.63 km/s
星下点 22.56°N, 134.52°E
发射日期 Nov 30, 2024
运行时间 0.9 years
类型 internet

技术详情

分类 Payload
质量 730.00 kg
干质量 700.00 kg
总质量 730.00 kg
长度 0.30 m
直径 4.10 m
跨度 29.00 m
形状 Box + pan
制造商 SPXS
平台类型 Starlink V2M
阶段状态 In Orbit
所有者/国家 SPXS/US

大型星座

Loading constellations...